This demonstration page uses our WeatherBlox Daily Observations layout. Learn more.

Left ArrowRight Arrow

39.92423, -83.80882

Hourly Observations for January 13, 2017

Temp ( °F °C ) Dew Point ( °F °C ) Humidity (%) Winds ( mph kmh ) Pressure ( in mb ) Visibility ( mi km ) Precip ( " mm )
12:56 am 00:56 Cloudy 33 0.6 29 -1.7 85 85 NW 9 15 30.44 1031 10 16.0934 0 0
1:56 am 01:56 Cloudy 33 0.6 29 -1.7 85 85 NNW 8 13 30.47 1032 10 16.0934 0 0
2:52 am 02:52 Cloudy 32 0 28 -2 87 87 NNW 7 11 30.53 1034 10 16.0934 0 0
2:56 am 02:56 Cloudy 32 0 29 -1.7 88 88 NNW 8 13 30.5 1033 10 16.0934 0 0
3:56 am 03:56 Cloudy 32 0 29 -1.7 88 88 NNW 8 13 30.53 1034 10 16.0934 0 0
4:44 am 04:44 Partly Cloudy 30 -1 28 -2 93 93 N 7 11 30.59 1036 10 16.0934 0 0
4:56 am 04:56 Mostly Cloudy 30 -1.1 28 -2.2 92 92 N 7 11 30.56 1035 10 16.0934 0 0
5:04 am 05:04 Mostly Cloudy 30 -1 27 -3 86 86 N 8 13 30.59 1036 10 16.0934 0 0
5:26 am 05:26 Partly Cloudy 28 -2 27 -3 93 93 N 9 15 30.62 1037 10 16.0934 0 0
5:56 am 05:56 Clear 28 -2.2 25 -3.9 88 88 N 6 9 30.59 1036 10 16.0934 0 0
6:56 am 06:56 Clear 27 -2.8 25 -3.9 92 92 N 8 13 30.61 1037 10 16.0934 0 0
7:56 am 07:56 Sunny 26 -3.3 24 -4.4 92 92 N 8 13 30.64 1038 10 16.0934 0 0
8:56 am 08:56 Sunny 30 -1.1 26 -3.3 85 85 NNE 7 11 30.67 1039 10 16.0934 0 0
9:52 am 09:52 Mostly Cloudy 30 -1 28 -2 93 93 NNE 9 15 30.71 1040 10 16.0934 0 0
9:56 am 09:56 Mostly Cloudy 32 0 27 -2.8 82 82 NE 10 17 30.69 1039 10 16.0934 0 0
10:04 am 10:04 Partly Cloudy 32 0 27 -3 80 80 NE 10 17 30.71 1040 10 16.0934 0 0
10:56 am 10:56 Mostly Sunny 33 0.6 25 -3.9 72 72 NNE 12 19 30.69 1039 10 16.0934 0 0
11:56 am 11:56 Sunny 34 1.1 24 -4.4 67 67 NNE 8 13 30.69 1039 10 16.0934 0 0
12:56 pm 12:56 Sunny 33 0.6 24 -4.4 70 70 NE 7 11 30.7 1040 10 16.0934 0 0
1:56 pm 13:56 Sunny 33 0.6 24 -4.4 70 70 NNE 13 20 30.67 1039 10 16.0934 0 0
2:56 pm 14:56 Sunny 32 0 25 -3.9 75 75 ENE 10 17 30.66 1038 10 16.0934 0 0
3:56 pm 15:56 Sunny 32 0 25 -3.9 75 75 NE 10 17 30.68 1039 10 16.0934 0 0
4:56 pm 16:56 Sunny 31 -0.6 25 -3.9 79 79 ENE 12 19 30.68 1039 10 16.0934 0 0
5:56 pm 17:56 Clear 30 -1.1 25 -3.9 82 82 NE 13 20 30.68 1039 10 16.0934 0 0
6:56 pm 18:56 Clear 30 -1.1 25 -3.9 82 82 NE 12 19 30.68 1039 10 16.0934 0 0
7:56 pm 19:56 Clear 30 -1.1 25 -3.9 82 82 NE 9 15 30.7 1040 10 16.0934 0 0
8:56 pm 20:56 Mostly Clear 30 -1.1 25 -3.9 82 82 ENE 10 17 30.67 1039 10 16.0934 0 0
9:56 pm 21:56 Mostly Cloudy 30 -1.1 25 -3.9 82 82 ENE 9 15 30.66 1038 10 16.0934 0 0
10:56 pm 22:56 Cloudy 30 -1.1 25 -3.9 82 82 ENE 13 20 30.62 1037 10 16.0934 0 0
11:56 pm 23:56 Cloudy 30 -1.1 24 -4.4 79 79 E 13 20 30.6 1036 10 16.0934 0 0

Powered by AerisWeather